Location: Budapest
(47.4979°N, 19.0402°E)
Time: 15:44:11
(UTC+01:00)

Vanguard 1 - Visible Passes

Search period start: 18 December 2017 00:00
Search period end: 28 December 2017 00:00
Orbit: 650 x 3834 km, 34.2° (Epoch: 16 December)

Date Brightness Start Highest point End Pass type
(mag) Time Alt. Az. Time Alt. Az. Time Alt. Az.
18 Dec 14.5 04:27:56 10° SSE 04:39:58 17° SE 04:51:24 10° E visible
18 Dec 14.1 06:42:47 10° SSW 07:02:46 38° SSE 07:18:34 10° E visible
19 Dec 14.4 04:45:13 10° S 05:00:28 23° SE 05:14:46 10° E visible
20 Dec 14.3 05:03:42 10° S 05:21:03 28° SE 05:37:08 10° E visible
21 Dec 14.5 03:13:20 10° SE 03:19:49 12° SE 03:26:23 10° ESE visible
21 Dec 14.1 05:22:54 10° SSW 05:41:44 34° SE 05:58:59 10° E visible
22 Dec 14.3 03:28:08 10° SSE 03:40:04 17° SE 03:52:20 10° E visible
22 Dec 14.0 05:42:35 10° SSW 06:02:32 40° SSE 06:20:32 10° E visible
23 Dec 14.1 03:45:39 10° S 04:00:23 23° SE 04:15:41 10° E visible
23 Dec 13.8 06:02:40 10° SW 06:23:25 45° SSE 06:41:52 10° E visible
24 Dec 14.0 04:04:16 10° S 04:20:48 29° SE 04:38:06 10° E visible
24 Dec 13.7 06:23:02 10° SW 06:44:24 49° SSE 07:03:05 10° E visible
25 Dec 14.3 02:14:45 10° SE 02:20:09 11° ESE 02:25:49 10° ESE visible
25 Dec 13.9 04:23:32 10° SSW 04:41:21 35° SE 05:00:02 10° E visible
25 Dec 13.6 06:43:39 10° SW 07:05:28 53° SSE 07:24:12 10° E visible
26 Dec 14.0 02:29:27 10° SSE 02:40:12 17° SE 02:52:08 10° E visible
26 Dec 13.8 04:43:16 10° SSW 05:02:02 40° SSE 05:21:39 10° E visible
27 Dec 13.9 02:47:03 10° S 03:00:21 23° SE 03:15:38 10° E visible
27 Dec 13.6 05:03:21 10° SW 05:22:50 46° SSE 05:43:04 10° E visible
